Regional Weather Roundup
Issued by NWS Charleston, SC

Current Version | Previous Version | Text Only | Print | Product List | Glossary Off
Versions: 1 2 3 4 5 6 7 8 9 10 11 12 13 14 15 16 17 18 19 20 21 22 23 24 25 26 27 28 29 30 31 32 33 34 35 36 37 38 39 40 41 42 43 44 45 46 47 48 49 50

973
ASUS42 KCHS 161027
RWRCHS

REGIONAL WEATHER ROUNDUP
NATIONAL WEATHER SERVICE CHARLESTON SC
500 AM EST MON JAN 16 2017

NOTE: "FAIR" INDICATES FEW OR NO CLOUDS BELOW 12,000 FEET WITH NO
SIGNIFICANT WEATHER AND/OR OBSTRUCTIONS TO VISIBILITY.

NOT ALL STATIONS ARE QUALITY CONTROLLED. USE DATA WITH CAUTION...
ESPECIALLY DEWPOINT OBSERVATIONS.

SCZ027-030-031-034>040-042>050-161100-
...SOUTHEAST SOUTH CAROLINA...

CITY           SKY/WX    TMP DP  RH WIND       PRES   REMARKS
N CHARLESTON   FOG       57  56  96 NE5       30.29R VSB 1/4
WATERFRONT PRK   N/A     57  57 100 VRB3      30.27F
MOUNT PLEASANT LGT RAIN  57  57 100 CALM      30.30R VSB 1/4
JOHNS ISLAND   FOG       59  59 100 CALM      30.29R VSB<1/4
PINOPOLIS      NOT AVBL
MONCKS CORNER  HVY RAIN  55  54  94 CALM      30.30R VSB 1/4
SUMMERVILLE    FOG      N/A N/A N/A N3        30.31R VSB 1/4
BEAUFORT MCAS  FOG       53  51  93 CALM      30.28R VSB 3/4
BEAUFORT ARPT  FAIR      54  54 100 NE5       30.28R FOG
HILTON HEAD IS PTCLDY    55  54  94 N5        30.29R
WALTERBORO     FOG       54 N/A N/A CALM      30.30S VSB 1/4
ALLENDALE      FAIR      52  50  93 CALM      30.27S FOG

...SOUTHERN MIDLANDS AND PEE DEE...

CITY           SKY/WX    TMP DP  RH WIND       PRES   REMARKS
GEORGETOWN     CLOUDY    52  52 100 NE3       30.32R
KINGSTREE      FOG       54  52  94 CALM      30.32R VSB 1/2
ORANGEBURG     FOG       52  52 100 E3        30.29S VSB 1/4
BARNWELL       FAIR      52  52 100 CALM      30.28S FOG
AIKEN          FAIR      45  45 100 CALM      30.31S
MANNING        FOG       54  54 100 E3        30.31R VSB 3/4
COLUMBIA       FOG       56  54  93 E7        30.29S VSB 1
SUMTER         CLOUDY    55  54  94 E7        30.28S FOG
FLORENCE       FOG       51  51 100 NE5       30.33R VSB 3/4
MYRTLE BEACH   CLOUDY    54  48  82 NE5       30.34R
N MYRTLE BEACH CLOUDY    51  50  96 NE7       30.31S

$$

GAZ063-065-086>088-099>101-113>116-118-119-134>141-150-161100-
...SOUTHEAST GEORGIA...

CITY           SKY/WX    TMP DP  RH WIND       PRES   REMARKS
SAVANNAH ARPT  MOCLDY    54  51  90 CALM      30.27R
HUNTER AAF     MOCLDY    55  55 100 CALM      30.25R
FORT STEWART   MOCLDY    55  53  95 CALM      30.24S
STATESBORO     FOG       50  50 100 CALM      30.27S VSB 1/4
SYLVANIA       FOG      N/A N/A N/A CALM      30.28S VSB 3/4
CLAXTON        FAIR     N/A N/A N/A CALM      30.27S HAZE

...CSRA...CENTRAL AND FAR SOUTHEAST GEORGIA...

CITY           SKY/WX    TMP DP  RH WIND       PRES   REMARKS
THOMSON        PTCLDY    48  48 100 CALM      30.32R
AUGUSTA-BUSH   FOG       48  46  93 CALM      30.27S VSB 1
AUGUSTA-DANIEL PTCLDY    55  50  83 CALM      30.27S
SWAINSBORO     CLOUDY    54  54 100 CALM      30.27S
VIDALIA        FOG       55  55 100 CALM      30.27R VSB 3/4
EASTMAN        CLOUDY    54  54 100 CALM      30.28S
HAZLEHURST     FAIR      59  59 100 CALM      30.25S
ALMA           FOG       52  52 100 CALM      30.26S VSB 1/2
WAYCROSS       FOG       55  55 100 CALM      30.26S VSB<1/4
JESUP          PTSUNNY   54  52  94 CALM      30.26F
BAXLEY         FOG       54  54 100 CALM      30.26R VSB 3/4
BRUNSWICK      PTCLDY    55  55 100 CALM      30.28R
SAINT SIMONS   CLOUDY    60  58  92 CALM      30.26R

$$

SCZ027-028-034-036>038-045-046-048>050-GAZ119-141-161100-
...LAKE AND SUPPLEMENTAL COASTAL OBSERVATIONS...

STATION/POSITION TIME  TEMP    WIND        PRES    WAVE   SWELL
                       AIR SEA DIR/SP/G            HT/PER HT/PER/DIR
                 (UTC) (F)     (DEG/KT/KT) (MB)    (FT/S) (FT/S/D)
WINYAH BAY       0945   52      50/  9     1026.0S
LAKE MURRAY      1020   55     100/  5/  7 1025.4
ACE BASIN NERRS  0930   53        CALM     1025.0S
FORT PULASKI     1000   58 55   80/  3/  4 1025.4
SAPELO ISLAND    1000   57        CALM     1025.0

$$

ANZ835-935-AMZ111-154-330-350-352-354-370-450-454-472-161100-
...C-MAN AND BUOY OBSERVATIONS...

STATION/POSITION TIME  TEMP    WIND        PRES    WAVE   SWELL
                       AIR SEA DIR/SP/G            HT/PER HT/PER/DIR
                 (UTC) (F)     (DEG/KT/KT) (MB)    (FT/S) (FT/S/D)
BUOY 41004       0950   69 71   50/  6/  6 1024.7S   3/10   3/ 90/10
BUOY 41008       0950   61 59   20/  4/  4 1024.4R   2/10   2/100/10
FOLLY BEACH CMAN 1000   56      10/  6/  8 1026.0R
CAPERS NEARSHORE 1008   54 54   40/ 10/ 12 1025.5R
FRIPP NEARSHORE  1008   56 55   50/  8/ 10 1025.0R


STATION/POSITION TIME  TEMP    WIND        PRES    WAVE   SWELL
                       AIR SEA DIR/SP/G            HT/PER HT/PER/DIR
                 (UTC) (F)     (DEG/KT/KT) (MB)    (FT/S) (FT/S/D)
5E ST. MARYS GA  1000      61                N/A     2/11   2/100/11
FRYING PAN BUOY  1010   64 70   50/ 14/ 16 1026.0
BUOY 41025       0950   57 74   40/ 17/ 21 1027.1F   5/ 5   2/120/10
CAPE LOOKOUT NC  1000   46     360/ 11/ 14 1027.9R
BUOY 41002       0950   68 71   90/  4/  6 1025.8R   4/ 9   3/ 80/ 9
BUOY 41010       NOT AVBL
ST AUGUSTINE FL  1000   65 64   90/  3/  4 1024.5R


$$




USA.gov is the U.S. government's official web portal to all federal, state and local government web resources and services.